Voltar ao catálogo

SL-24 R/B

AtivoPO
NORAD 40303·ROCKET BODY·🇷🇺 Russia

Lançado Nov 6, 2014 de Dombarovsky

Loading…

Próximas Passagens (próximas 24 horas)

TLE

AtualizadoSource: Space-Track

Época: Sep 14, 2026, 09:09 UTC

1 40303U 14070F   26257.38175631  .00000200  00000-0  56149-4 0  9999
2 40303  97.1501 126.2458 0946460 317.3845  35.7457 13.15356513568354

Acompanhe SL-24 R/B em tempo real com AllMySat

Download on the App Store